[[[{"header":{"parameterUnit":"kt","parameterCategory":2,"dx":1,"dy":1,"la1":30.253999710083008,"la2":30.299108505249023,"lo1":-89.0895004272461,"lo2":-89.04439544677734,"nx":28,"ny":28,"refTime":"2022-09-26T21:00:00:Z","depth":0,"parameterNumber":1,"parameterNumberName":"U-component_of_WINDS"},"data":[-4.6066,-4.6137,-4.6124,-4.6199,-4.6199,-4.6248,-4.6261,-4.6276,-4.6285,-4.6341,-4.637,-4.6364,-4.6367,-4.6399,-4.643,-4.6426,-4.6441,-4.6475,-4.6465,-4.6322,-4.6301,-4.6281,-4.6264,-4.6478,-4.6479,-4.6615,-4.6616,-4.6617,-4.596,-4.5961,-4.5997,-4.6023,-4.6053,-4.6011,-4.6028,-4.6056,-4.6101,-4.6112,-4.6141,-4.6189,-4.6226,-4.6217,-4.6249,-4.6281,-4.6264,-4.6291,-4.6289,-4.629,-4.6136,-4.6118,-4.6305,-4.6305,-4.6305,-4.6305,-4.6305,-4.6305,-4.5764,-4.5808,-4.5815,-4.5854,-4.5863,-4.5881,-4.592,-4.5911,-4.5945,-4.5978,-4.5955,-4.6005,-4.6014,-4.6046,-4.6054,-4.6092,-4.6059,-4.6085,-4.6092,-4.6099,-4.6109,-4.5913,-4.6097,-4.6096,-4.6096,-4.6095,-4.6095,0,-4.5617,-4.5603,-4.5636,-4.5666,-4.5694,-4.5716,-4.5733,-4.5757,-4.5722,-4.5752,-4.5795,-4.5817,-4.586,-4.5899,-4.5926,-4.5928,-4.5888,-4.5883,-4.5901,-4.5913,-4.592,-4.5917,-4.5668,-4.5878,-4.5876,-4.5874,-4.5873,-4.5873,-4.5419,-4.5471,-4.5473,-4.5498,-4.5505,-4.5547,-4.5569,-4.5534,-4.5559,-4.5575,-4.5615,-4.5653,-4.5682,-4.5752,-4.5741,-4.5773,-4.5754,-4.5836,-4.5759,-4.5768,-4.5756,-4.5754,-4.5758,-4.5852,-4.5855,-4.5857,-4.5859,0,-4.5308,-4.5286,-4.5363,-4.536,-4.536,-4.5417,-4.5414,-4.5456,-4.5442,-4.5498,-4.5509,-4.5489,-4.5531,-4.5506,-4.555,-4.5536,-4.5628,-4.5609,-4.5625,-4.562,-4.5691,-4.5685,-4.5924,-4.5954,-4.573,-4.5733,-4.5734,0,-4.5131,-4.5201,-4.5164,-4.521,-4.5287,-4.525,-4.5327,-4.5323,-4.533,-4.5374,-4.5324,-4.5366,-4.5328,-4.5367,-4.5346,-4.5417,-4.5425,-4.5418,-4.5412,-4.5424,-4.5425,-4.5437,-4.5427,-4.5396,-4.5395,-4.5394,-4.5393,0,-4.4961,-4.5024,-4.5098,-4.5109,-4.5113,-4.5149,-4.5152,-4.5159,-4.5181,-4.5206,-4.522,-4.5251,-4.5269,-4.5294,-4.5267,-4.5216,-4.5353,-4.5277,-4.5347,-4.5347,-4.5379,-4.5378,-4.5595,-4.5391,-4.5391,-4.539,-4.539,0,-4.4815,-4.4841,-4.4952,-4.4954,-4.4972,-4.5021,-4.5049,-4.5086,-4.5097,-4.5088,-4.5107,-4.5071,-4.5131,-4.5057,-4.5139,-4.508,-4.51,-4.5099,-4.5104,-4.5108,-4.5027,-4.5154,-4.5363,-4.5384,-4.5111,-4.5109,-4.5107,0,-4.4627,-4.4733,-4.4703,-4.481,-4.4855,-4.4796,-4.485,-4.4862,-4.4854,-4.4891,-4.488,-4.4924,-4.4864,-4.4874,-4.4917,-4.4909,-4.4986,-4.4898,-4.4952,-4.4955,-4.4951,-4.5143,-4.5181,-4.5319,-4.5077,-4.508,-4.5082,0,-4.4478,-4.4483,-4.4504,-4.4515,-4.4525,-4.4564,-4.4625,-4.466,-4.4687,-4.4706,-4.4757,-4.4816,-4.4773,-4.4791,-4.4765,-4.4812,-4.4933,-4.476,-4.476,-4.4792,-4.5059,-4.5095,-4.5118,-4.4905,-4.4909,-4.4912,-4.5058,0,-4.4263,-4.4313,-4.437,-4.4396,-4.4422,-4.4487,-4.4462,-4.4492,-4.4464,-4.4454,-4.4528,-4.4533,-4.4568,-4.4588,-4.4562,-4.4678,-4.4655,-4.4609,-4.4536,-4.4662,-4.471,-4.4729,-4.4467,-4.4464,-4.4463,-4.4461,0,0,-4.4089,-4.4161,-4.4126,-4.4185,-4.4205,-4.4143,-4.4216,-4.4227,-4.4253,-4.4268,-4.4227,-4.4313,-4.4318,-4.4412,-4.4449,-4.4463,-4.4481,-4.4439,-4.4602,-4.4618,-4.4633,-4.4684,-4.4705,-4.4458,-4.4457,-4.4456,-4.4456,0,-4.4005,-4.4012,-4.4084,-4.4095,-4.4109,-4.4095,-4.4112,-4.4116,-4.4113,-4.4185,-4.4134,-4.4176,-4.4246,-4.4258,-4.4274,-4.4426,-4.4386,-4.4439,-4.453,-4.4584,-4.4602,-4.4618,-4.4673,-4.4693,-4.4451,-4.4451,-4.4451,0,-4.3855,-4.3857,-4.389,-4.3932,-4.3941,-4.399,-4.3907,-4.3963,-4.3998,-4.3929,-4.4003,-4.4002,-4.4016,-4.4108,-4.4148,-4.4112,-4.43,-4.4236,-4.4248,-4.4252,-4.4303,-4.4325,-4.4345,-4.4085,-4.4084,-4.4083,0,0,-4.3786,-4.3833,-4.3826,-4.3912,-4.3921,-4.3901,-4.3924,-4.39,-4.3914,-4.3921,-4.3919,-4.3935,-4.3974,-4.4002,-4.4038,-4.4142,-4.4143,-4.4192,-4.421,-4.4224,-4.4236,-4.429,-4.4312,-4.4078,-4.4078,-4.4078,0,0,-4.3753,-4.3748,-4.3718,-4.3815,-4.383,-4.3829,-4.3883,-4.3846,-4.3876,-4.3866,-4.3827,-4.383,-4.3915,-4.3916,-4.386,-4.4012,-4.3941,-4.3954,-4.4008,-4.403,-4.4047,-4.4045,-4.3776,0,0,0,0,0,-4.3655,-4.3748,-4.3721,-4.3734,-4.3787,-4.3844,-4.385,-4.3821,-4.377,-4.3813,-4.3806,-4.3761,-4.3878,-4.3827,-4.384,-4.3903,-4.4021,-4.4031,-4.4041,-4.4136,-4.4158,-4.4177,0,0,0,0,0,0,-4.366,-4.3675,-4.3718,-4.3721,-4.3733,-4.384,-4.3749,-4.3743,-4.3765,-4.3755,-4.3763,-4.3761,-4.3737,-4.3818,-4.383,-4.3891,-4.3772,-4.4025,-4.4034,-4.4041,-4.4143,-4.4162,-4.4178,0,0,0,0,0,-4.3663,-4.3675,-4.3769,-4.372,-4.373,-4.3713,-4.3745,-4.3739,-4.3756,-4.3745,-4.3741,-4.3731,-4.3739,-4.3747,-4.3825,-4.3887,-4.3763,-4.3768,-4.4031,-4.4037,-4.4043,-4.4153,0,0,0,0,0,0,-4.3666,-4.3671,-4.377,-4.3772,-4.3683,-4.3706,-4.3709,-4.3737,-4.3743,-4.3741,-4.3711,-4.3703,-4.3742,-4.3748,-4.3754,-4.3887,-4.3756,-4.3761,-4.3764,-4.4036,-4.4041,-4.4046,0,0,0,0,0,0,-4.3664,-4.3673,-4.3771,-4.3726,-4.3722,-4.37,-4.3702,-4.3764,-4.3744,-4.3708,-4.3702,-4.3707,-4.3732,-4.3749,-4.3754,-4.3851,-4.3751,-4.3756,-4.3759,-4.3761,-4.404,-4.4044,0,0,0,0,0,0,-4.3667,-4.3675,-4.3725,-4.3723,-4.3719,-4.3739,-4.3754,-4.381,-4.3706,-4.3709,-4.3695,-4.3691,-4.3735,-4.3739,-4.3754,-4.385,-4.3851,-4.3751,-4.3754,-4.3756,-4.3758,0,0,0,0,0,0,0,-4.367,-4.3625,-4.3759,-4.372,-4.3717,-4.379,-4.3791,-4.3791,-4.3705,-4.37,-4.3696,-4.3693,-4.3725,-4.373,-4.3735,-4.3848,0,0,-4.3751,-4.3753,0,0,0,0,0,0,0,0,-4.3621,-4.3624,-4.3759,-4.3759,-4.376,-4.379,-4.3791,-4.3791,-4.3704,-4.3701,-4.3697,-4.3694,-4.3727,-4.3731,-4.3735,0,0,0,0,0,0,0,0,0,0,0,0,0,0,0,-4.3759,-4.3759,0,-4.379,-4.3791,-4.3791,-4.3703,-4.3701,-4.3698,-4.3695,-4.3728,-4.3731,-4.3734,0,0,0,0,0,0,0,0,0,0,0,0,0,0,0,0,0,0,0,0,0,0,0,0,0,0,0,0,0,0,0,0,0,0,0,0,0,0,0,0,0,0,0,0,0,0,0,0,0,0,0,0,0,0,0,0,0,0,0,0,0,0,0,0,0,0,0,0,0]}],[{"header":{"parameterUnit":"kt","parameterCategory":2,"dx":1,"dy":1,"la1":30.253999710083008,"la2":30.299108505249023,"lo1":-89.0895004272461,"lo2":-89.04439544677734,"nx":28,"ny":28,"refTime":"2022-09-26T21:00:00:Z","depth":0,"parameterNumber":2,"parameterNumberName":"V-component_of_WINDS"},"data":[-18.7219,-18.7443,-18.7447,-18.7702,-18.7747,-18.792,-18.7982,-18.8061,-18.8123,-18.8325,-18.844,-18.846,-18.8518,-18.8651,-18.8772,-18.8777,-18.8828,-18.8908,-18.8899,-18.8546,-18.8497,-18.845,-18.8399,-18.8919,-18.892,-18.9265,-18.9269,-18.9271,-18.6965,-18.7014,-18.715,-18.7282,-18.7398,-18.7323,-18.742,-18.752,-18.7674,-18.7751,-18.7864,-18.804,-18.8176,-18.8205,-18.8334,-18.8434,-18.8403,-18.8469,-18.8461,-18.8471,-18.8093,-18.8039,-18.8492,-18.8492,-18.8492,-18.8492,-18.8491,-18.8491,-18.6502,-18.6636,-18.6718,-18.6864,-18.693,-18.7018,-18.7143,-18.7167,-18.7295,-18.7434,-18.7406,-18.7578,-18.765,-18.7802,-18.7851,-18.7982,-18.7907,-18.7977,-18.7994,-18.8012,-18.8034,-18.7539,-18.8003,-18.8002,-18.8,-18.7999,-18.7998,0,-18.6163,-18.6157,-18.6286,-18.6417,-18.6522,-18.6622,-18.6711,-18.6788,-18.6765,-18.6871,-18.7024,-18.711,-18.7279,-18.7419,-18.7537,-18.7572,-18.7499,-18.749,-18.7538,-18.7556,-18.7558,-18.756,-18.6946,-18.7476,-18.7471,-18.7468,-18.7466,-18.7464,-18.5697,-18.5852,-18.5935,-18.6026,-18.6075,-18.622,-18.6305,-18.6273,-18.6364,-18.6466,-18.6582,-18.6722,-18.6833,-18.7072,-18.7088,-18.7212,-18.7176,-18.738,-18.7194,-18.7206,-18.718,-18.7172,-18.7187,-18.7416,-18.7422,-18.7427,-18.7431,0,-18.5434,-18.5434,-18.5673,-18.5738,-18.5758,-18.5921,-18.5973,-18.6102,-18.6107,-18.6284,-18.6323,-18.6329,-18.6476,-18.6459,-18.6621,-18.6607,-18.6869,-18.6831,-18.6846,-18.6837,-18.7018,-18.7001,-18.7606,-18.7683,-18.7142,-18.7148,-18.7152,0,-18.5036,-18.5238,-18.5226,-18.5364,-18.5588,-18.555,-18.5771,-18.5796,-18.5858,-18.5997,-18.5913,-18.6044,-18.6001,-18.6129,-18.6108,-18.6319,-18.6348,-18.635,-18.6342,-18.6358,-18.6358,-18.6402,-18.6377,-18.6316,-18.6313,-18.6311,-18.6308,0,-18.4625,-18.4853,-18.5078,-18.5129,-18.5216,-18.5321,-18.5361,-18.5428,-18.551,-18.5612,-18.5664,-18.5785,-18.5851,-18.5944,-18.5917,-18.5792,-18.6174,-18.5995,-18.6175,-18.6176,-18.6259,-18.6254,-18.6795,-18.6304,-18.6303,-18.6302,-18.6301,0,-18.4301,-18.4412,-18.4737,-18.4806,-18.4867,-18.5013,-18.5132,-18.5252,-18.5329,-18.5327,-18.5406,-18.5345,-18.5527,-18.5353,-18.5602,-18.5447,-18.5516,-18.5534,-18.5546,-18.556,-18.5365,-18.5673,-18.619,-18.6243,-18.5576,-18.557,-18.5564,0,-18.3832,-18.4159,-18.4128,-18.4436,-18.4584,-18.4481,-18.4641,-18.4712,-18.4722,-18.4845,-18.4853,-18.4993,-18.4859,-18.49,-18.5026,-18.5038,-18.524,-18.501,-18.5185,-18.5192,-18.517,-18.5646,-18.5727,-18.6079,-18.5486,-18.5494,-18.55,0,-18.3467,-18.3571,-18.3628,-18.3685,-18.3773,-18.3895,-18.4079,-18.4211,-18.4295,-18.4381,-18.4533,-18.4727,-18.4634,-18.4702,-18.4663,-18.4796,-18.5102,-18.4676,-18.4677,-18.4754,-18.5445,-18.5522,-18.5582,-18.5047,-18.5056,-18.5063,-18.5439,0,-18.2981,-18.3142,-18.3296,-18.3421,-18.3513,-18.3703,-18.3687,-18.3784,-18.374,-18.3745,-18.3967,-18.4015,-18.4143,-18.4204,-18.416,-18.4468,-18.4413,-18.4311,-18.4137,-18.445,-18.4573,-18.4623,-18.3956,-18.3951,-18.3946,-18.3943,0,0,-18.2532,-18.2762,-18.272,-18.2899,-18.2973,-18.2861,-18.3066,-18.3123,-18.3242,-18.3295,-18.3199,-18.348,-18.3522,-18.3791,-18.3887,-18.3938,-18.3991,-18.3881,-18.4301,-18.4341,-18.4378,-18.451,-18.4563,-18.3935,-18.3933,-18.3932,-18.393,0,-18.2351,-18.2404,-18.2608,-18.2668,-18.2754,-18.275,-18.2799,-18.2862,-18.2874,-18.309,-18.299,-18.3119,-18.3343,-18.3402,-18.3461,-18.385,-18.3764,-18.389,-18.4107,-18.4257,-18.4303,-18.4344,-18.4483,-18.4534,-18.392,-18.392,-18.3921,0,-18.1989,-18.2039,-18.2135,-18.2299,-18.2353,-18.2506,-18.2322,-18.249,-18.2602,-18.2462,-18.2678,-18.2702,-18.2776,-18.3033,-18.3147,-18.3062,-18.356,-18.3397,-18.3424,-18.3436,-18.358,-18.3635,-18.3685,-18.3036,-18.3033,-18.3031,0,0,-18.1834,-18.1983,-18.2022,-18.2259,-18.23,-18.2295,-18.2373,-18.2337,-18.241,-18.2439,-18.2467,-18.2538,-18.2667,-18.2753,-18.2872,-18.3157,-18.3168,-18.3289,-18.3331,-18.3365,-18.3396,-18.3549,-18.3603,-18.3019,-18.3019,-18.3019,0,0,-18.1758,-18.1815,-18.1758,-18.2031,-18.2107,-18.2157,-18.23,-18.2231,-18.2337,-18.2312,-18.2253,-18.227,-18.2508,-18.2534,-18.2387,-18.281,-18.2639,-18.2673,-18.2784,-18.2837,-18.2878,-18.2866,-18.22,0,0,0,0,0,-18.1564,-18.1808,-18.1757,-18.18,-18.2003,-18.2187,-18.2212,-18.2172,-18.2053,-18.2168,-18.218,-18.2083,-18.2443,-18.2311,-18.2352,-18.2516,-18.2875,-18.2901,-18.2925,-18.3135,-18.319,-18.3236,0,0,0,0,0,0,-18.158,-18.1634,-18.175,-18.1812,-18.1857,-18.2177,-18.1967,-18.1963,-18.204,-18.2019,-18.2084,-18.2085,-18.2051,-18.2287,-18.2325,-18.2482,-18.2187,-18.2885,-18.2907,-18.2926,-18.3154,-18.3198,-18.3237,0,0,0,0,0,-18.1593,-18.1636,-18.1974,-18.1808,-18.1847,-18.1853,-18.1958,-18.1952,-18.201,-18.2028,-18.2026,-18.1973,-18.2056,-18.2085,-18.2309,-18.2465,-18.2161,-18.2175,-18.2899,-18.2916,-18.2932,-18.3176,0,0,0,0,0,0,-18.1603,-18.1631,-18.198,-18.1991,-18.1713,-18.1834,-18.1851,-18.1944,-18.2014,-18.2015,-18.1913,-18.1896,-18.2064,-18.2084,-18.2107,-18.2463,-18.2139,-18.2154,-18.2163,-18.2912,-18.2926,-18.2938,0,0,0,0,0,0,-18.1608,-18.1641,-18.1985,-18.1868,-18.1864,-18.1817,-18.1833,-18.2015,-18.2016,-18.1894,-18.1882,-18.1905,-18.2027,-18.2085,-18.2102,-18.2389,-18.2123,-18.2137,-18.2146,-18.2152,-18.2923,-18.2934,0,0,0,0,0,0,-18.1621,-18.1649,-18.1864,-18.1862,-18.1858,-18.197,-18.1976,-18.2185,-18.192,-18.1893,-18.1895,-18.1883,-18.2031,-18.2047,-18.21,-18.238,-18.2386,-18.2123,-18.2133,-18.2139,-18.2144,0,0,0,0,0,0,0,-18.1631,-18.1453,-18.192,-18.1857,-18.1853,-18.2086,-18.2089,-18.2091,-18.1917,-18.1907,-18.1897,-18.1888,-18.2043,-18.2059,-18.2074,-18.2372,0,0,-18.2122,-18.2129,0,0,0,0,0,0,0,0,-18.144,-18.145,-18.192,-18.1923,-18.1925,-18.2086,-18.2088,-18.2091,-18.1916,-18.1908,-18.1899,-18.1892,-18.2048,-18.206,-18.2072,0,0,0,0,0,0,0,0,0,0,0,0,0,0,0,-18.1921,-18.1922,0,-18.2087,-18.2088,-18.209,-18.1915,-18.1908,-18.1901,-18.1895,-18.2051,-18.2061,-18.2071,0,0,0,0,0,0,0,0,0,0,0,0,0,0,0,0,0,0,0,0,0,0,0,0,0,0,0,0,0,0,0,0,0,0,0,0,0,0,0,0,0,0,0,0,0,0,0,0,0,0,0,0,0,0,0,0,0,0,0,0,0,0,0,0,0,0,0,0,0]}]]]